Lid_Strength_Index
0 -0 -0 -1 -1 -1 -0 -0 -1 -0 -0 -1 -1 -1 -1 -1 -0 -1 -1 -2 -2 -2 -2 -2 -2 -2 -2 -2 -2 -1 -1 -2 -1 -1 -1 -2 -2 -1 -1 -1 -1 -1 -1
-0 -0 -0 -0 -1 -0 -0 -0 -1 -0 -0 -0 -0 -1 -1 -1 -1 -0 -0 -1 -2 -2 -2 -2 -2 -2 -2 -2 -2 -2 -2 -2 -2 -2 -2 -2 -2 -2 -2 -2 -1 -1 -2
0 0 -0 0 -0 -1 -1 -0 -0 -1 -0 -0 -0 -1 -1 -1 -1 -1 -1 -1 -1 -2 -2 -2 -1 -1 -2 -2 -2 -2 -2 -2 -2 -1 -1 -1 -1 -1 -2 -1 -2 -2 -1
-0 -0 0 0 -0 -0 -0 0 0 0 0 0 0 0 -0 -0 -0 -1 -1 -1 -1 -1 -2 -2 -2 -2 -2 -2 -2 -2 -2 -2 -1 -1 -1 -1 -1 -1 -1 -1 -1 -2 -2
-1 -1 0 1 -0 -0 -0 0 0 0 1 1 1 0 -0 -0 0 -0 -1 -1 -1 -1 -1 -1 -2 -2 -2 -2 -2 -2 -2 -2 -1 -1 -2 -2 -2 -1 -1 -1 -1 -1 -1
-0 -0 -0 -0 -0 0 0 0 1 0 0 1 1 1 0 -0 -0 0 -0 -1 -1 -1 -1 -1 -1 -1 -2 -2 -2 -2 -2 -2 -2 -1 -2 -1 -1 -1 -1 -1 -1 -1 -1
-0 -0 -0 -0 -0 0 0 0 0 1 1 1 1 2 1 0 0 1 0 -0 -1 -1 -1 -1 -1 -1 -1 -2 -1 -1 -2 -2 -2 -2 -2 -2 -2 -2 -1 -1 -1 -1 -1
-1 0 0 0 0 0 0 1 1 1 1 1 3 3 5 3 1 1 0 0 0 -1 -1 -1 -1 -1 -1 -1 -1 -1 -2 -2 -2 -2 -1 -1 -1 -1 -1 -1 -1 -1 -1
-0 0 -0 0 0 0 1 1 1 1 2 1 1 3 5 6 3 1 1 0 0 0 -0 -1 -1 -1 -1 -1 -1 -1 -1 -1 -1 -1 -1 -1 -1 -1 -1 -1 -1 -1 -1
-0 -0 -0 0 0 0 0 0 0 1 1 3 1 1 2 2 4 5 2 1 0 0 0 -0 -1 -1 -1 -1 -1 -1 -1 -1 -1 -1 -1 -1 -1 -1 -1 -1 -1 -1 -1
-0 -0 -0 -0 0 0 0 0 0 1 1 2 2 2 2 2 2 4 5 3 1 0 0 -0 -0 -1 -1 -1 -1 -1 -1 -1 -1 -1 -1 -1 -1 -1 -1 -1 -1 -1 -1
1 0 -0 -0 -0 0 0 0 0 0 1 1 1 1 2 3 3 3 4 4 3 2 0 0 -0 -0 -1 -1 -1 -1 -1 -1 -0 -0 -0 -1 -1 -1 -1 -2 -2 -2 -2
1 1 0 0 0 0 0 0 0 1 1 1 1 1 1 2 1 2 3 3 4 2 2 0 -0 -1 -1 -0 -1 -1 -2 -1 0 1 1 0 -0 -0 -1 -2 -1 -1 -2
1 0 0 0 0 0 0 0 0 1 1 1 1 1 1 1 1 2 2 3 4 4 2 2 0 -0 -1 -1 -1 -1 -1 -0 0 1 1 1 1 0 0 -0 -0 -1 -1
0 0 0 0 0 0 0 0 1 1 1 1 1 1 1 1 1 1 1 2 3 5 5 2 2 -0 -1 -1 -1 -1 -1 0 0 1 2 2 2 1 1 1 1 1 1
0 0 0 0 0 0 0 0 1 1 1 1 1 1 1 1 1 0 1 1 1 3 5 2 2 0 -0 -1 -1 -1 -1 1 1 1 2 2 2 2 2 2 2 2 2
0 1 1 1 1 1 1 1 1 1 1 1 1 1 1 1 1 1 1 1 2 2 4 2 1 0 0 0 -0 -1 -1 -1 -1 2 2 2 3 3 3 3 2 2 2
0 0 1 1 1 1 1 1 1 1 1 2 2 4 4 1 2 1 1 1 2 1 2 4 2 1 1 -0 -0 -0 -0 -1 -1 1 2 3 3 4 4 3 4 4 4
1 0 1 1 1 1 1 1 1 1 1 2 3 2 2 2 2 2 1 2 1 1 2 3 3 1 1 0 1 0 0 -0 -1 0 2 3 3 4 4 4 4 5 6
1 1 1 1 1 1 1 1 1 1 1 1 2 3 2 1 2 2 2 2 2 2 2 2 3 2 2 1 1 2 2 1 1 -0 0 1 2 2 3 4 4 5 6
1 1 1 1 1 1 1 1 1 1 2 2 2 3 3 2 1 1 1 2 2 2 3 3 3 3 3 3 3 2 2 1 1 0 1 0 -0 -0 0 3 1 3 5
1 1 1 1 1 2 2 2 1 1 2 2 3 2 1 1 1 2 1 1 1 2 3 3 3 3 3 2 2 2 2 3 4 0 1 1 0 1 -0 -0 1 3 4
2 2 2 1 2 1 2 3 2 1 1 2 3 3 3 1 1 1 2 3 3 3 2 2 3 3 3 2 1 2 2 2 3 1 1 2 0 1 -0 -0 4 4 5
2 3 2 2 2 1 3 5 4 1 1 2 2 3 3 2 1 1 1 1 1 1 1 1 1 1 1 0 1 1 1 1 1 1 0 3 1 1 0 -1 3 4 5
3 2 2 2 2 2 4 6 5 2 2 2 3 2 2 2 3 4 1 2 2 2 2 3 3 4 5 5 2 1 2 3 3 2 0 2 1 2 1 1 0 4 5
4 3 2 3 4 2 6 8 6 2 2 2 2 2 4 2 5 5 1 2 3 2 1 1 1 3 4 3 6 1 1 3 3 3 1 2 2 2 3 1 0 -1 0